Location: Beccas
(43.4309°N, 0.1528°E)
Time: 21:06:23
(UTC+00:00)

GPS 2-04 Rocket1 - Pass Details

Date: 15 October 2021
Orbit: 413 x 535 km, 35.6° (Epoch: 29 November)

Event Time Altitude Azimuth Distance (km) Brightness Sun altitude
Rises 18:33:02 0° 257° (WSW) 2,533 7.8 -14.7°
Reaches altitude 10° 18:35:40 10° 240° (WSW) 1,626 6.1 -15.2°
Maximum altitude 18:38:25 20° 192° (SSW) 1,117 4.5 -15.7°
Enters shadow 18:40:13 14° 155° (SSE) 1,333 4.5 -16.0°
